Weather History for Sacramento International, CA

Change the Weather History Date:

Sunday, December 1, 2013

  Actual Average Record
Temperature  
Mean Temperature 52 °F -  
Max Temperature 66 °F 58 °F 68 °F (1959)
Min Temperature 37 °F 38 °F 28 °F (1969)
Degree Days  
Heating Degree Days 14    
Growing Degree Days 2 (Base 50)    
Moisture  
Dew Point 41 °F    
Average Humidity 74    
Maximum Humidity 97    
Minimum Humidity 42    
Precipitation  
Precipitation 0.00 in - - ()
Sea Level Pressure  
Sea Level Pressure 30.27 in    
Wind  
Wind Speed 1 mph (SE)    
Max Wind Speed 5 mph    
Max Gust Speed -    
Visibility 8 miles    
Events Fog    
Averages and records for this station are not official NWS values.
T = Trace of Precipitation, MM = Missing Value Source: NWS Daily Summary

Daily Weather History Graph

Daily Weather History Graph

Search for Another Location

Airport:

Trip Planner

Search our weather history database for the weather conditions in past years. The results will help you decide how hot, cold, wet, or windy it might be!

Date:

Astronomy

Dec. 01, 2013 Rise Set
Actual Time 7:05 AM PST 4:45 PM PST
Civil Twilight 6:36 AM PST 5:14 PM PST
Nautical Twilight 6:03 AM PST 5:47 PM PST
Astronomical Twilight 5:31 AM PST 6:19 PM PST
Moon 5:30 AM PST (12/1) 3:58 PM PST (12/1)
Length of Visible Light 10h 38m
Length of Day
9h 39m
Waning Crescent, 2% of the Moon is Illuminated
Dec 1
Waning Crescent
Dec 2
New
Dec 9
First Quarter
Dec 17
Full
Dec 25
Last Quarter

Hourly Weather History & Observations

Time (PST) Temp. Windchill Dew Point Humidity Pressure Visibility Wind Dir Wind Speed Gust Speed Precip Events Conditions
12:53 AM 41.0 °F 39.0 °F 37.0 °F 86% 30.27 in 10.0 mi East 3.5 mph - N/A   Clear
1:53 AM 41.0 °F - 39.0 °F 93% 30.27 in 10.0 mi Calm Calm - N/A   Clear
2:53 AM 41.0 °F - 37.9 °F 89% 30.27 in 10.0 mi Calm Calm - N/A   Clear
3:53 AM 37.9 °F 35.5 °F 36.0 °F 93% 30.27 in 10.0 mi WNW 3.5 mph - N/A   Clear
4:53 AM 39.0 °F 36.8 °F 37.0 °F 93% 30.29 in 8.0 mi WNW 3.5 mph - N/A   Clear
5:53 AM 41.0 °F - 39.0 °F 93% 30.29 in 8.0 mi Calm Calm - N/A   Clear
6:53 AM 37.9 °F 34.4 °F 36.0 °F 93% 30.32 in 6.0 mi NE 4.6 mph - N/A Fog Clear
7:53 AM 39.9 °F - 39.0 °F 97% 30.33 in 5.0 mi Calm Calm - N/A Fog Partly Cloudy
8:53 AM 46.9 °F - 42.1 °F 83% 30.34 in 6.0 mi Calm Calm - N/A   Partly Cloudy
9:53 AM 53.1 °F - 43.0 °F 69% 30.35 in 7.0 mi Calm Calm - N/A   Partly Cloudy
10:53 AM 57.9 °F - 44.1 °F 60% 30.34 in 7.0 mi Calm Calm - N/A   Partly Cloudy
11:53 AM 60.1 °F - 44.1 °F 55% 30.31 in 7.0 mi Calm Calm - N/A   Partly Cloudy
12:53 PM 63.0 °F - 44.1 °F 50% 30.29 in 7.0 mi Calm Calm - N/A   Partly Cloudy
1:53 PM 64.9 °F - 44.1 °F 47% 30.27 in 7.0 mi Calm Calm - N/A   Partly Cloudy
2:53 PM 64.9 °F - 43.0 °F 45% 30.25 in 7.0 mi Calm Calm - N/A   Scattered Clouds
3:53 PM 66.0 °F - 42.1 °F 42% 30.24 in 10.0 mi Calm Calm - N/A   Scattered Clouds
4:53 PM 61.0 °F - 44.1 °F 54% 30.22 in 10.0 mi Calm Calm - N/A   Scattered Clouds
5:53 PM 53.1 °F - 42.1 °F 66% 30.22 in 10.0 mi Calm Calm - N/A   Partly Cloudy
6:53 PM 53.1 °F - 43.0 °F 69% 30.22 in 10.0 mi Calm Calm - N/A   Clear
7:53 PM 46.9 °F - 39.9 °F 77% 30.22 in 10.0 mi Calm Calm - N/A   Clear
8:53 PM 45.0 °F 43.5 °F 39.9 °F 82% 30.23 in 10.0 mi East 3.5 mph - N/A   Clear
9:53 PM 46.9 °F - 41.0 °F 80% 30.23 in 10.0 mi South 3.5 mph - N/A   Clear
10:53 PM 46.0 °F - 39.9 °F 79% 30.24 in 10.0 mi Calm Calm - N/A   Clear
11:53 PM 48.0 °F - 42.1 °F 80% 30.23 in 9.0 mi South 3.5 mph - N/A   Clear